[[{"header":{"parameterUnit":"m.s-1","parameterCategory":1,"la1":30.2991,"la2":30.254,"lo1":-89.0895,"lo2":-89.0444,"dy":0.0017,"dx":0.0017,"nx":28,"ny":28,"refTime":"2025-04-14T21:00:00:Z","depth":0,"parameterNumber":2,"parameterNumberName":"U-component_of_WINDS"},"data":[0,0,0,0,0,0,0,0,0,0,0,0,0,0,0,0,0,0,0,0,0,0,0,0,0,0,0,0,0,0,0,0,0,0,0,0,0,0,0,0,0,0,0,0,0,0,0,0,0,0,0,0,0,0,0,0,0,0,-0.5149,-0.5148,0,-0.505,-0.5049,-0.5048,-0.4945,-0.4943,-0.4942,-0.4941,-0.484,-0.4839,-0.4837,0,0,0,0,0,0,0,0,0,0,0,0,0,-0.525,-0.5249,-0.5149,-0.5148,-0.5147,-0.5051,-0.5049,-0.5048,-0.4945,-0.4943,-0.4942,-0.494,-0.484,-0.4839,-0.4837,0,0,0,0,0,0,0,0,0,0,0,0,0,-0.5184,-0.5248,-0.5149,-0.5084,-0.5077,-0.5051,-0.5049,-0.5047,-0.4945,-0.4943,-0.4941,-0.4939,-0.4841,-0.4839,-0.4837,-0.4868,0,0,-0.4831,-0.483,0,0,0,0,0,0,0,0,-0.5188,-0.5181,-0.5095,-0.5088,-0.508,-0.5008,-0.5048,-0.4987,-0.4946,-0.4995,-0.4941,-0.4938,-0.4897,-0.4891,-0.4877,-0.4863,-0.4858,-0.4831,-0.4829,-0.4828,-0.4828,0,0,0,0,0,0,0,-0.5193,-0.5184,-0.511,-0.5093,-0.5085,-0.506,-0.5048,-0.5036,-0.496,-0.4991,-0.4983,-0.4973,-0.4893,-0.4879,-0.4874,-0.4857,-0.4831,-0.4829,-0.4828,-0.4827,-0.4865,-0.4867,0,0,0,0,0,0,-0.5207,-0.5189,-0.5113,-0.5107,-0.513,-0.506,-0.5047,-0.5033,-0.496,-0.4946,-0.4975,-0.4968,-0.4884,-0.4876,-0.487,-0.4902,-0.4828,-0.4827,-0.4825,-0.4863,-0.4866,-0.4868,0,0,0,0,0,0,-0.521,-0.5201,-0.5117,-0.5146,-0.5133,-0.506,-0.5046,-0.5032,-0.5018,-0.4947,-0.4933,-0.4974,-0.4882,-0.4873,-0.4869,-0.4897,-0.4826,-0.4824,-0.486,-0.4864,-0.4867,-0.4966,0,0,0,0,0,0,-0.5213,-0.5203,-0.5213,-0.5147,-0.5132,-0.5118,-0.5048,-0.5032,-0.5015,-0.5006,-0.4943,-0.4931,-0.4879,-0.4873,-0.4867,-0.4893,-0.4822,-0.4857,-0.4862,-0.4866,-0.496,-0.4972,-0.4983,0,0,0,0,0,-0.5217,-0.5245,-0.5214,-0.5206,-0.5143,-0.512,-0.5111,-0.5051,-0.5018,-0.5028,-0.4983,-0.4933,-0.4895,-0.4873,-0.4866,-0.4892,-0.4855,-0.4861,-0.4865,-0.4955,-0.497,-0.4983,0,0,0,0,0,0,-0.5316,-0.5235,-0.52,-0.5207,-0.5171,-0.5102,-0.5113,-0.5069,-0.5042,-0.5034,-0.4961,-0.4948,-0.4954,-0.4922,-0.4899,-0.4918,-0.4868,-0.4872,-0.4939,-0.4952,-0.4964,-0.4971,-0.4821,0,0,0,0,0,-0.5339,-0.5326,-0.5256,-0.5269,-0.5252,-0.5187,-0.5174,-0.5131,-0.5091,-0.5075,-0.5029,-0.4993,-0.4972,-0.4961,-0.4938,-0.4955,-0.4941,-0.4969,-0.4981,-0.4991,-0.4995,-0.5003,-0.5015,-0.4884,-0.4884,-0.4884,0,0,-0.5385,-0.5339,-0.5335,-0.5287,-0.5254,-0.5244,-0.5174,-0.5165,-0.5156,-0.5073,-0.5068,-0.5034,-0.4988,-0.4995,-0.4996,-0.4969,-0.5028,-0.4997,-0.5005,-0.5004,-0.5009,-0.5022,-0.5033,-0.4888,-0.4887,-0.4887,0,0,-0.5464,-0.5428,-0.5435,-0.5404,-0.5356,-0.5312,-0.5314,-0.5252,-0.5227,-0.522,-0.5158,-0.5147,-0.5114,-0.5084,-0.5065,-0.5136,-0.5089,-0.513,-0.519,-0.5199,-0.521,-0.5218,-0.5245,-0.5255,-0.5135,-0.5135,-0.5135,0,-0.5528,-0.5509,-0.5445,-0.544,-0.5421,-0.5347,-0.5354,-0.5327,-0.5274,-0.5263,-0.5234,-0.5192,-0.5155,-0.5156,-0.5174,-0.516,-0.5161,-0.5137,-0.5213,-0.5221,-0.5229,-0.5253,-0.5263,-0.514,-0.514,-0.5139,-0.5139,0,-0.559,-0.5578,-0.559,-0.5541,-0.5524,-0.5526,-0.5463,-0.5453,-0.5413,-0.5373,-0.5368,-0.5322,-0.529,-0.5287,-0.5246,-0.5282,-0.5267,-0.5227,-0.5175,-0.5248,-0.5269,-0.5278,-0.5148,-0.5146,-0.5145,-0.5143,0,0,-0.5727,-0.5645,-0.565,-0.5628,-0.557,-0.5559,-0.5559,-0.5527,-0.5521,-0.5488,-0.5485,-0.546,-0.5423,-0.5401,-0.5358,-0.5366,-0.5426,-0.5324,-0.5322,-0.5345,-0.5464,-0.5495,-0.5507,-0.5396,-0.5397,-0.5398,-0.5468,0,-0.5797,-0.579,-0.5734,-0.5743,-0.5732,-0.5662,-0.5661,-0.5627,-0.559,-0.5575,-0.5534,-0.5518,-0.547,-0.5456,-0.5461,-0.5418,-0.5449,-0.5412,-0.5394,-0.5394,-0.5407,-0.5518,-0.555,-0.5618,-0.5476,-0.5477,-0.5478,0,-0.5876,-0.5848,-0.5857,-0.5801,-0.5794,-0.5794,-0.5762,-0.5749,-0.5709,-0.5681,-0.5659,-0.561,-0.5606,-0.5558,-0.5552,-0.5529,-0.5518,-0.5496,-0.5497,-0.5493,-0.544,-0.5517,-0.5638,-0.5648,-0.5491,-0.549,-0.5489,0,-0.5976,-0.5941,-0.5942,-0.5925,-0.5859,-0.5861,-0.5834,-0.5791,-0.5777,-0.5749,-0.5739,-0.5712,-0.5697,-0.5677,-0.5623,-0.5592,-0.5624,-0.5571,-0.5602,-0.5603,-0.5611,-0.5611,-0.5732,-0.5604,-0.5604,-0.5604,-0.5604,0,-0.606,-0.6068,-0.5986,-0.5987,-0.5995,-0.5931,-0.5941,-0.5907,-0.587,-0.5864,-0.5802,-0.5797,-0.5725,-0.5713,-0.5671,-0.5673,-0.5667,-0.5645,-0.5634,-0.5651,-0.5654,-0.5643,-0.5637,-0.5607,-0.5606,-0.5605,-0.5605,0,-0.6172,-0.6118,-0.6115,-0.6053,-0.6038,-0.6047,-0.5994,-0.5993,-0.5953,-0.5946,-0.5941,-0.5878,-0.5861,-0.5805,-0.5773,-0.5745,-0.5761,-0.5739,-0.5774,-0.5767,-0.5802,-0.5799,-0.592,-0.5933,-0.5797,-0.5798,-0.5799,0,-0.6229,-0.6234,-0.6173,-0.6165,-0.614,-0.6127,-0.6112,-0.605,-0.6038,-0.5994,-0.5998,-0.5976,-0.5955,-0.5931,-0.5883,-0.5859,-0.5836,-0.588,-0.5832,-0.585,-0.5837,-0.5838,-0.5839,-0.589,-0.5892,-0.5894,-0.5895,0,-0.6336,-0.6309,-0.629,-0.6263,-0.6247,-0.6222,-0.6194,-0.619,-0.6121,-0.611,-0.6092,-0.6076,-0.6045,-0.6024,-0.5993,-0.5965,-0.5919,-0.5911,-0.5917,-0.5934,-0.5955,-0.5945,-0.5803,-0.5908,-0.5907,-0.5906,-0.5905,-0.5904,-0.6422,-0.6424,-0.6382,-0.6364,-0.6336,-0.6312,-0.6308,-0.6268,-0.6252,-0.6221,-0.6186,-0.6173,-0.6134,-0.6087,-0.6064,-0.6053,-0.6028,-0.6036,-0.6038,-0.6042,-0.605,-0.5957,-0.6047,-0.6047,-0.6046,-0.6046,-0.6045,0,-0.6526,-0.6496,-0.648,-0.6443,-0.6429,-0.6387,-0.6354,-0.6346,-0.6334,-0.6302,-0.6283,-0.6264,-0.6244,-0.6195,-0.6171,-0.6172,-0.615,-0.6168,-0.6167,-0.6162,-0.6074,-0.6071,-0.6186,-0.6186,-0.6186,-0.6186,-0.6186,-0.6186,-0.6578,-0.658,-0.6549,-0.6536,-0.6506,-0.6493,-0.6478,-0.6456,-0.643,-0.641,-0.6394,-0.6362,-0.6324,-0.6297,-0.6278,-0.6264,-0.6258,-0.6283,-0.6263,-0.6181,-0.6168,-0.6155,-0.6152,-0.6282,-0.6282,-0.6352,-0.6352,-0.6353]},{"header":{"parameterUnit":"m.s-1","parameterCategory":1,"la1":30.2991,"la2":30.254,"lo1":-89.0895,"lo2":-89.0444,"dy":0.0017,"dx":0.0017,"nx":28,"ny":28,"refTime":"2025-04-14T21:00:00:Z","depth":0,"parameterNumber":3,"parameterNumberName":"V-component_of_WINDS"},"data":[0,0,0,0,0,0,0,0,0,0,0,0,0,0,0,0,0,0,0,0,0,0,0,0,0,0,0,0,0,0,0,0,0,0,0,0,0,0,0,0,0,0,0,0,0,0,0,0,0,0,0,0,0,0,0,0,0,0,2.8805,2.8804,0,2.8786,2.8786,2.8786,2.8816,2.8817,2.8818,2.8819,2.8795,2.8794,2.8792,0,0,0,0,0,0,0,0,0,0,0,0,0,2.8861,2.886,2.8805,2.8804,2.8804,2.8787,2.8786,2.8786,2.8816,2.8817,2.8818,2.882,2.8796,2.8794,2.8792,0,0,0,0,0,0,0,0,0,0,0,0,0,2.8839,2.8859,2.8805,2.8817,2.8818,2.8787,2.8786,2.8786,2.8816,2.8817,2.8819,2.882,2.8796,2.8794,2.8792,2.8746,0,0,2.8784,2.8783,0,0,0,0,0,0,0,0,2.884,2.8837,2.8816,2.8816,2.8817,2.8805,2.8797,2.8772,2.8815,2.8816,2.8819,2.8821,2.8797,2.8795,2.8788,2.8745,2.8744,2.8784,2.8783,2.8782,2.8781,0,0,0,0,0,0,0,2.8841,2.8838,2.8797,2.8815,2.8816,2.8822,2.8821,2.8793,2.8798,2.8816,2.8819,2.8816,2.8798,2.879,2.8787,2.8743,2.8784,2.8782,2.8781,2.878,2.866,2.8659,0,0,0,0,0,0,2.8842,2.8839,2.8798,2.8797,2.8833,2.882,2.8818,2.8807,2.8798,2.8799,2.8815,2.8818,2.8793,2.879,2.8787,2.8731,2.8782,2.8779,2.8778,2.8662,2.866,2.8658,0,0,0,0,0,0,2.8843,2.8838,2.8799,2.8818,2.8814,2.8817,2.8805,2.8806,2.8799,2.8797,2.8798,2.8806,2.8794,2.879,2.8756,2.8731,2.8778,2.8776,2.8664,2.8661,2.8659,2.862,0,0,0,0,0,0,2.8845,2.8838,2.8822,2.8818,2.8813,2.8769,2.8803,2.8805,2.8795,2.8798,2.8789,2.8789,2.8795,2.8759,2.8753,2.8728,2.8774,2.8666,2.8663,2.866,2.8623,2.8616,2.861,0,0,0,0,0,2.8847,2.8811,2.8821,2.8816,2.8792,2.8768,2.8765,2.8774,2.8793,2.8775,2.8775,2.879,2.8735,2.8755,2.8749,2.8723,2.8668,2.8664,2.866,2.8626,2.8618,2.861,0,0,0,0,0,0,2.881,2.881,2.8822,2.8784,2.8776,2.8773,2.8751,2.8764,2.8749,2.8753,2.8763,2.8761,2.8724,2.872,2.8743,2.8677,2.8704,2.8699,2.8681,2.8672,2.8666,2.8667,2.8772,0,0,0,0,0,2.8798,2.878,2.878,2.8747,2.8742,2.8748,2.8737,2.8745,2.8736,2.8733,2.8729,2.8719,2.8699,2.8686,2.8668,2.8624,2.8621,2.8602,2.8596,2.859,2.8585,2.856,2.8551,2.8645,2.8645,2.8645,0,0,2.8772,2.877,2.8757,2.8739,2.8734,2.8713,2.8744,2.8721,2.8705,2.8729,2.8696,2.8693,2.8682,2.8643,2.8625,2.8638,2.8559,2.8585,2.8581,2.8579,2.8555,2.8546,2.8538,2.8642,2.8643,2.8643,0,0,2.8713,2.8711,2.8682,2.8677,2.8669,2.8673,2.8666,2.8661,2.8661,2.8629,2.8646,2.8627,2.8593,2.8584,2.8575,2.8514,2.8527,2.8508,2.8473,2.8448,2.8441,2.8434,2.8411,2.8402,2.8503,2.8503,2.8503,0,2.8681,2.8652,2.8665,2.8641,2.8632,2.8654,2.8624,2.8618,2.8604,2.8596,2.8612,2.857,2.8564,2.8522,2.8508,2.85,2.8491,2.8508,2.8441,2.8435,2.8429,2.8406,2.8398,2.8501,2.8501,2.8501,2.8502,0,2.8612,2.8592,2.8569,2.8557,2.8546,2.8518,2.8526,2.8513,2.8522,2.8523,2.849,2.8484,2.8465,2.8456,2.8464,2.8415,2.8423,2.844,2.8467,2.8417,2.8396,2.8388,2.8498,2.8498,2.8499,2.85,0,0,2.8529,2.8525,2.8516,2.8511,2.8504,2.8487,2.8461,2.8444,2.8431,2.8421,2.8398,2.8369,2.8385,2.8375,2.8382,2.8361,2.8311,2.838,2.838,2.8366,2.8254,2.824,2.823,2.8321,2.8319,2.8318,2.8255,0,2.8469,2.8425,2.8436,2.8392,2.8372,2.8393,2.837,2.8362,2.8364,2.8346,2.8346,2.8325,2.8349,2.8343,2.8323,2.8321,2.8288,2.8327,2.8296,2.8295,2.8297,2.822,2.8205,2.8145,2.8247,2.8245,2.8245,0,2.8394,2.8382,2.8336,2.8332,2.8324,2.8303,2.8288,2.8272,2.8263,2.8266,2.8255,2.8266,2.8238,2.8268,2.8228,2.8254,2.8242,2.824,2.8238,2.8233,2.8265,2.8211,2.8127,2.8117,2.8232,2.8233,2.8234,0,2.8335,2.8308,2.8277,2.8271,2.8267,2.8251,2.8248,2.8242,2.8231,2.8217,2.821,2.8193,2.8183,2.8169,2.8175,2.8196,2.8133,2.8163,2.8132,2.8132,2.8116,2.8117,2.8027,2.8113,2.8113,2.8113,2.8113,0,2.8267,2.8237,2.825,2.823,2.8197,2.821,2.8177,2.8176,2.817,2.815,2.8167,2.8147,2.8158,2.8138,2.8143,2.8108,2.8104,2.8103,2.8104,2.8101,2.81,2.8092,2.8095,2.8111,2.8111,2.8112,2.8112,0,2.8194,2.8203,2.8169,2.8169,2.8168,2.8143,2.8141,2.8122,2.8125,2.8099,2.8093,2.8097,2.8075,2.8081,2.8056,2.8059,2.8015,2.8022,2.8018,2.8019,2.7987,2.7989,2.7887,2.7873,2.797,2.7969,2.7968,0,2.8149,2.8127,2.8124,2.8112,2.8109,2.8089,2.8079,2.8091,2.8078,2.8067,2.8049,2.8029,2.8013,2.7976,2.7975,2.7956,2.7962,2.7928,2.7959,2.7956,2.7959,2.796,2.7957,2.792,2.7919,2.7918,2.7918,0,2.8067,2.8072,2.8057,2.8043,2.803,2.8019,2.8009,2.7998,2.8009,2.7994,2.7973,2.7961,2.7936,2.7915,2.7898,2.7893,2.7906,2.7908,2.79,2.7894,2.7892,2.7891,2.7999,2.791,2.7911,2.7911,2.7912,2.7912,2.8006,2.7987,2.7982,2.7964,2.7958,2.7949,2.7931,2.7932,2.7915,2.7897,2.7905,2.7879,2.7871,2.7849,2.7843,2.7822,2.7834,2.7823,2.7819,2.7815,2.7811,2.7897,2.7819,2.7819,2.7819,2.7819,2.782,0,2.7923,2.7921,2.7905,2.7892,2.7877,2.7894,2.7884,2.787,2.7848,2.784,2.7825,2.7799,2.7779,2.7777,2.7758,2.7741,2.7747,2.7736,2.7736,2.7734,2.7801,2.781,2.7731,2.7731,2.7731,2.7731,2.7731,2.7731,2.7878,2.7847,2.7851,2.7817,2.7815,2.7791,2.7784,2.7775,2.7768,2.774,2.7724,2.7724,2.7718,2.7698,2.768,2.768,2.7671,2.7657,2.7658,2.7721,2.7729,2.7738,2.7746,2.7655,2.7655,2.7593,2.7592,2.7592]}]]